Private Wetterstation Wechselburg
Wetterdaten: Dienstag, 13.07.2021
Datum Zeit Temp. +2m Bodentemp. Temp.+5cm Temp. Wind Windchill X Diff Temp. Feuchte +2m Feuchte +5cm Luftdruck Regen Wind Richtung Richtung Sonnenschein Taupunkt Windchill Windben
13.07.2021 00:00 17,6 C 20,7 C 16,9 C 17,1 C 16,1 C 0,0 C 85 % 91 % 1008,4 hPa 0,0 l/m 0,0 km/h (0 Bft) O-NO 67 0 min 15,0 C 16,1 C 0,0 km/h (0 Bft)
13.07.2021 00:05 17,5 C 20,7 C 16,9 C 17,0 C 16,1 C 0,0 C 85 % 91 % 1008,4 hPa 0,0 l/m 0,0 km/h (0 Bft) O-NO 67 0 min 14,9 C 16,1 C 0,0 km/h (0 Bft)
13.07.2021 00:10 17,5 C 20,6 C 16,8 C 17,1 C 16,2 C 0,0 C 85 % 91 % 1008,4 hPa 0,0 l/m 0,0 km/h (0 Bft) O-NO 67 0 min 14,9 C 16,2 C 0,0 km/h (0 Bft)
13.07.2021 00:15 17,5 C 20,6 C 16,7 C 17,0 C 16,1 C 0,0 C 85 % 91 % 1008,8 hPa 0,0 l/m 0,0 km/h (0 Bft) O-NO 67 0 min 14,9 C 16,1 C 0,0 km/h (0 Bft)
13.07.2021 00:20 17,5 C 20,7 C 16,7 C 17,0 C 16,1 C 0,0 C 85 % 91 % 1008,8 hPa 0,0 l/m 0,0 km/h (0 Bft) O-NO 67 0 min 14,9 C 16,1 C 0,0 km/h (0 Bft)
13.07.2021 00:25 17,3 C 20,7 C 16,7 C 16,9 C 16,2 C 0,0 C 86 % 92 % 1008,8 hPa 0,0 l/m 0,0 km/h (0 Bft) O-NO 67 0 min 14,9 C 16,2 C 0,0 km/h (0 Bft)
13.07.2021 00:30 17,2 C 20,7 C 16,7 C 16,9 C 16,2 C 0,0 C 86 % 92 % 1008,8 hPa 0,0 l/m 0,0 km/h (0 Bft) O-NO 67 0 min 14,8 C 16,2 C 0,0 km/h (0 Bft)
13.07.2021 00:35 17,2 C 20,7 C 16,6 C 16,8 C 16,1 C 0,0 C 86 % 91 % 1008,8 hPa 0,0 l/m 0,0 km/h (0 Bft) O-NO 67 0 min 14,8 C 16,1 C 0,0 km/h (0 Bft)
13.07.2021 00:40 17,1 C 20,7 C 16,5 C 16,7 C 15,9 C 0,0 C 86 % 91 % 1008,8 hPa 0,0 l/m 0,0 km/h (0 Bft) O-NO 67 0 min 14,7 C 15,9 C 0,0 km/h (0 Bft)
13.07.2021 00:45 17,0 C 20,7 C 16,4 C 16,6 C 15,8 C 0,0 C 86 % 91 % 1008,8 hPa 0,0 l/m 0,0 km/h (0 Bft) O-NO 67 0 min 14,6 C 15,8 C 0,0 km/h (0 Bft)
13.07.2021 00:50 16,9 C 20,7 C 16,4 C 16,5 C 15,7 C 0,0 C 86 % 91 % 1008,8 hPa 0,0 l/m 0,0 km/h (0 Bft) O-NO 67 0 min 14,5 C 15,7 C 0,0 km/h (0 Bft)
13.07.2021 00:55 16,9 C 20,7 C 16,3 C 16,5 C 15,7 C 0,0 C 86 % 91 % 1008,8 hPa 0,0 l/m 0,0 km/h (0 Bft) O-NO 67 0 min 14,5 C 15,7 C 0,0 km/h (0 Bft)
13.07.2021 01:00 16,8 C 20,6 C 16,3 C 16,4 C 15,6 C 0,0 C 86 % 91 % 1008,8 hPa 0,0 l/m 0,0 km/h (0 Bft) O-NO 67 0 min 14,4 C 15,6 C 0,0 km/h (0 Bft)
13.07.2021 01:05 16,7 C 20,6 C 16,2 C 16,3 C 15,4 C 0,0 C 86 % 91 % 1008,8 hPa 0,0 l/m 0,0 km/h (0 Bft) O-NO 67 0 min 14,3 C 15,4 C 0,0 km/h (0 Bft)
13.07.2021 01:10 16,6 C 20,6 C 16,1 C 16,2 C 15,4 C 0,0 C 86 % 91 % 1008,8 hPa 0,0 l/m 0,0 km/h (0 Bft) O-NO 67 0 min 14,2 C 15,4 C 0,0 km/h (0 Bft)
13.07.2021 01:15 16,4 C 20,6 C 16,1 C 16,1 C 15,4 C 0,0 C 86 % 91 % 1008,6 hPa 0,0 l/m 0,0 km/h (0 Bft) O-NO 67 0 min 14,1 C 15,4 C 0,0 km/h (0 Bft)
13.07.2021 01:20 16,5 C 20,6 C 16,0 C 16,1 C 15,3 C 0,0 C 86 % 92 % 1008,6 hPa 0,0 l/m 0,0 km/h (0 Bft) O-NO 67 0 min 14,1 C 15,3 C 0,0 km/h (0 Bft)
13.07.2021 01:25 16,3 C 20,6 C 15,9 C 15,9 C 15,2 C 0,0 C 86 % 92 % 1008,6 hPa 0,0 l/m 0,0 km/h (0 Bft) O-NO 67 0 min 14,0 C 15,2 C 0,0 km/h (0 Bft)
13.07.2021 01:30 16,3 C 20,6 C 15,9 C 15,9 C 15,2 C 0,0 C 86 % 92 % 1008,6 hPa 0,0 l/m 0,0 km/h (0 Bft) O-NO 67 0 min 14,0 C 15,2 C 0,0 km/h (0 Bft)
13.07.2021 01:35 16,2 C 20,6 C 15,8 C 15,8 C 15,1 C 0,0 C 87 % 92 % 1008,4 hPa 0,0 l/m 0,0 km/h (0 Bft) O-NO 67 0 min 14,0 C 15,1 C 0,0 km/h (0 Bft)
13.07.2021 01:40 16,1 C 20,6 C 15,8 C 15,8 C 15,2 C 0,0 C 87 % 92 % 1008,4 hPa 0,0 l/m 0,0 km/h (0 Bft) O-NO 67 0 min 13,9 C 15,2 C 0,0 km/h (0 Bft)
13.07.2021 01:45 16,0 C 20,6 C 15,8 C 15,7 C 15,2 C 0,0 C 86 % 92 % 1008,4 hPa 0,0 l/m 0,0 km/h (0 Bft) O-NO 67 0 min 13,7 C 15,2 C 0,0 km/h (0 Bft)
13.07.2021 01:50 16,0 C 20,5 C 15,8 C 15,8 C 15,3 C 0,0 C 87 % 92 % 1008,4 hPa 0,0 l/m 0,0 km/h (0 Bft) O-NO 67 0 min 13,8 C 15,3 C 0,0 km/h (0 Bft)
13.07.2021 01:55 15,9 C 20,5 C 15,7 C 15,7 C 15,2 C 0,0 C 87 % 92 % 1008,3 hPa 0,0 l/m 0,0 km/h (0 Bft) O-NO 67 0 min 13,7 C 15,2 C 0,0 km/h (0 Bft)
13.07.2021 02:00 15,8 C 20,5 C 15,7 C 15,6 C 15,2 C 0,0 C 87 % 92 % 1008,3 hPa 0,0 l/m 0,0 km/h (0 Bft) O-NO 67 0 min 13,6 C 15,2 C 0,0 km/h (0 Bft)
13.07.2021 02:05 15,9 C 20,5 C 15,7 C 15,7 C 15,2 C 0,0 C 87 % 92 % 1008,3 hPa 0,0 l/m 0,0 km/h (0 Bft) O-NO 67 0 min 13,7 C 15,2 C 0,0 km/h (0 Bft)
13.07.2021 02:10 15,7 C 20,5 C 15,7 C 15,5 C 15,2 C 0,0 C 87 % 92 % 1008,3 hPa 0,0 l/m 0,0 km/h (0 Bft) O-NO 67 0 min 13,5 C 15,2 C 0,0 km/h (0 Bft)
13.07.2021 02:15 15,6 C 20,5 C 15,5 C 15,4 C 14,9 C 0,0 C 87 % 92 % 1008,2 hPa 0,0 l/m 0,0 km/h (0 Bft) O-NO 67 0 min 13,4 C 14,9 C 0,0 km/h (0 Bft)
13.07.2021 02:20 15,6 C 20,5 C 15,4 C 15,3 C 14,8 C 0,0 C 87 % 92 % 1008,2 hPa 0,0 l/m 0,0 km/h (0 Bft) O-NO 67 0 min 13,4 C 14,8 C 0,0 km/h (0 Bft)
13.07.2021 02:25 15,5 C 20,5 C 15,4 C 15,2 C 14,7 C 0,0 C 87 % 92 % 1008,2 hPa 0,0 l/m 0,0 km/h (0 Bft) O-NO 67 0 min 13,3 C 14,7 C 0,0 km/h (0 Bft)
13.07.2021 02:30 15,5 C 20,5 C 15,4 C 15,2 C 14,6 C 0,0 C 87 % 92 % 1008,2 hPa 0,0 l/m 0,0 km/h (0 Bft) O-NO 67 0 min 13,3 C 14,6 C 0,0 km/h (0 Bft)
13.07.2021 02:35 15,3 C 20,4 C 15,3 C 15,0 C 14,5 C 0,0 C 87 % 92 % 1008,1 hPa 0,0 l/m 0,0 km/h (0 Bft) O-NO 67 0 min 13,1 C 14,5 C 0,0 km/h (0 Bft)
13.07.2021 02:40 15,3 C 20,4 C 15,2 C 15,0 C 14,4 C 0,0 C 87 % 92 % 1008,1 hPa 0,0 l/m 0,0 km/h (0 Bft) O-NO 67 0 min 13,1 C 14,4 C 0,0 km/h (0 Bft)
13.07.2021 02:45 15,3 C 20,4 C 15,1 C 15,0 C 14,4 C 0,0 C 87 % 92 % 1008,1 hPa 0,0 l/m 0,0 km/h (0 Bft) O-NO 67 0 min 13,1 C 14,4 C 0,0 km/h (0 Bft)
13.07.2021 02:50 15,1 C 20,4 C 15,1 C 14,9 C 14,4 C 0,0 C 87 % 92 % 1008,1 hPa 0,0 l/m 0,0 km/h (0 Bft) O-NO 67 0 min 13,0 C 14,4 C 0,0 km/h (0 Bft)
13.07.2021 02:55 15,0 C 20,4 C 15,1 C 14,8 C 14,4 C 0,0 C 87 % 92 % 1008,1 hPa 0,0 l/m 0,0 km/h (0 Bft) O-NO 67 0 min 12,9 C 14,4 C 0,0 km/h (0 Bft)
13.07.2021 03:00 15,1 C 20,4 C 15,1 C 14,9 C 14,5 C 0,0 C 87 % 92 % 1008,1 hPa 0,0 l/m 0,0 km/h (0 Bft) O-NO 67 0 min 13,0 C 14,5 C 0,0 km/h (0 Bft)
13.07.2021 03:05 14,9 C 20,4 C 15,0 C 14,8 C 14,5 C 0,0 C 87 % 93 % 1008,1 hPa 0,0 l/m 0,0 km/h (0 Bft) O-NO 67 0 min 12,8 C 14,5 C 0,0 km/h (0 Bft)
13.07.2021 03:10 14,9 C 20,4 C 15,0 C 14,8 C 14,5 C 0,0 C 87 % 93 % 1008,1 hPa 0,0 l/m 0,0 km/h (0 Bft) O-NO 67 0 min 12,8 C 14,5 C 0,0 km/h (0 Bft)
13.07.2021 03:15 14,9 C 20,3 C 15,0 C 14,7 C 14,4 C 0,0 C 87 % 93 % 1008,1 hPa 0,0 l/m 0,0 km/h (0 Bft) O-NO 67 0 min 12,8 C 14,4 C 0,0 km/h (0 Bft)
13.07.2021 03:20 14,8 C 20,3 C 14,9 C 14,7 C 14,4 C 0,0 C 87 % 92 % 1008,1 hPa 0,0 l/m 0,0 km/h (0 Bft) O-NO 67 0 min 12,7 C 14,4 C 0,0 km/h (0 Bft)
13.07.2021 03:25 14,7 C 20,3 C 14,9 C 14,5 C 14,2 C 0,0 C 87 % 92 % 1008,1 hPa 0,0 l/m 0,0 km/h (0 Bft) O-NO 67 0 min 12,6 C 14,2 C 0,0 km/h (0 Bft)
13.07.2021 03:30 14,6 C 20,3 C 14,8 C 14,4 C 14,1 C 0,0 C 87 % 92 % 1008,1 hPa 0,0 l/m 0,0 km/h (0 Bft) O-NO 67 0 min 12,5 C 14,1 C 0,0 km/h (0 Bft)
13.07.2021 03:35 14,5 C 20,3 C 14,7 C 14,3 C 13,9 C 0,0 C 87 % 92 % 1007,8 hPa 0,0 l/m 0,0 km/h (0 Bft) O-NO 67 0 min 12,4 C 13,9 C 0,0 km/h (0 Bft)
13.07.2021 03:40 14,5 C 20,3 C 14,7 C 14,3 C 13,9 C 0,0 C 87 % 92 % 1007,8 hPa 0,0 l/m 0,0 km/h (0 Bft) O-NO 67 0 min 12,4 C 13,9 C 0,0 km/h (0 Bft)
13.07.2021 03:45 14,4 C 20,3 C 14,7 C 14,2 C 13,9 C 0,0 C 87 % 92 % 1007,8 hPa 0,0 l/m 0,0 km/h (0 Bft) O-NO 67 0 min 12,3 C 13,9 C 0,0 km/h (0 Bft)
13.07.2021 03:50 14,5 C 20,3 C 14,7 C 14,4 C 14,1 C 0,0 C 87 % 92 % 1007,8 hPa 0,0 l/m 0,0 km/h (0 Bft) O-NO 67 0 min 12,4 C 14,1 C 0,0 km/h (0 Bft)
13.07.2021 03:55 14,3 C 20,2 C 14,7 C 14,2 C 14,1 C 0,0 C 87 % 92 % 1007,7 hPa 0,0 l/m 0,0 km/h (0 Bft) O-NO 67 0 min 12,2 C 14,1 C 0,0 km/h (0 Bft)
13.07.2021 04:00 14,3 C 20,2 C 14,7 C 14,3 C 14,2 C 0,0 C 87 % 92 % 1007,7 hPa 0,0 l/m 0,0 km/h (0 Bft) O-NO 67 0 min 12,2 C 14,2 C 0,0 km/h (0 Bft)
13.07.2021 04:05 14,3 C 20,2 C 14,6 C 14,3 C 14,2 C 0,0 C 87 % 92 % 1007,7 hPa 0,0 l/m 0,0 km/h (0 Bft) O-NO 67 0 min 12,2 C 14,2 C 0,0 km/h (0 Bft)
13.07.2021 04:10 14,2 C 20,2 C 14,6 C 14,2 C 14,2 C 0,0 C 87 % 92 % 1007,7 hPa 0,0 l/m 0,0 km/h (0 Bft) O-NO 67 0 min 12,1 C 14,2 C 0,0 km/h (0 Bft)
13.07.2021 04:15 14,1 C 20,2 C 14,7 C 14,1 C 14,1 C 0,0 C 87 % 92 % 1007,6 hPa 0,0 l/m 0,0 km/h (0 Bft) O-NO 67 0 min 12,0 C 14,1 C 0,0 km/h (0 Bft)
13.07.2021 04:20 14,1 C 20,2 C 14,6 C 14,1 C 14,0 C 0,0 C 87 % 92 % 1007,6 hPa 0,0 l/m 0,0 km/h (0 Bft) O-NO 67 0 min 12,0 C 14,0 C 0,0 km/h (0 Bft)
13.07.2021 04:25 14,0 C 20,2 C 14,5 C 13,9 C 13,7 C 0,0 C 87 % 92 % 1007,6 hPa 0,0 l/m 0,0 km/h (0 Bft) O-NO 67 0 min 11,9 C 13,7 C 0,0 km/h (0 Bft)
13.07.2021 04:30 14,1 C 20,2 C 14,4 C 14,0 C 13,7 C 0,0 C 87 % 92 % 1007,6 hPa 0,0 l/m 0,0 km/h (0 Bft) O-NO 67 0 min 12,0 C 13,7 C 0,0 km/h (0 Bft)
13.07.2021 04:35 14,0 C 20,1 C 14,4 C 13,9 C 13,8 C 0,0 C 87 % 93 % 1007,6 hPa 0,0 l/m 0,0 km/h (0 Bft) O-NO 67 0 min 11,9 C 13,8 C 0,0 km/h (0 Bft)
13.07.2021 04:40 13,9 C 20,1 C 14,4 C 13,8 C 13,7 C 0,0 C 87 % 92 % 1007,6 hPa 0,0 l/m 0,0 km/h (0 Bft) O-NO 67 0 min 11,8 C 13,7 C 0,0 km/h (0 Bft)
13.07.2021 04:45 13,8 C 20,2 C 14,3 C 13,8 C 13,7 C 0,0 C 87 % 93 % 1007,6 hPa 0,0 l/m 0,0 km/h (0 Bft) O-NO 67 0 min 11,7 C 13,7 C 0,0 km/h (0 Bft)
13.07.2021 04:50 13,9 C 20,2 C 14,4 C 13,9 C 13,8 C 0,0 C 87 % 93 % 1007,6 hPa 0,0 l/m 0,0 km/h (0 Bft) O-NO 67 0 min 11,8 C 13,8 C 0,0 km/h (0 Bft)
13.07.2021 04:55 13,8 C 20,2 C 14,4 C 13,8 C 13,7 C 0,0 C 87 % 93 % 1006,9 hPa 0,0 l/m 0,0 km/h (0 Bft) O-NO 67 0 min 11,7 C 13,7 C 0,0 km/h (0 Bft)
13.07.2021 05:00 13,7 C 20,2 C 14,3 C 13,7 C 13,7 C 0,0 C 87 % 93 % 1006,9 hPa 0,0 l/m 0,0 km/h (0 Bft) O-NO 67 0 min 11,6 C 13,7 C 0,0 km/h (0 Bft)
13.07.2021 05:05 13,6 C 20,2 C 14,3 C 13,7 C 13,7 C 0,1 C 87 % 93 % 1006,9 hPa 0,0 l/m 0,0 km/h (0 Bft) O-NO 67 0 min 11,5 C 13,7 C 0,0 km/h (0 Bft)
13.07.2021 05:10 13,7 C 20,2 C 14,2 C 13,7 C 13,6 C 0,0 C 87 % 92 % 1006,9 hPa 0,0 l/m 0,0 km/h (0 Bft) O-NO 67 0 min 11,6 C 13,6 C 0,0 km/h (0 Bft)
13.07.2021 05:15 13,6 C 20,1 C 14,1 C 13,5 C 13,4 C 0,0 C 87 % 92 % 1007,7 hPa 0,0 l/m 0,0 km/h (0 Bft) O-NO 67 0 min 11,5 C 13,4 C 0,0 km/h (0 Bft)
13.07.2021 05:20 13,5 C 20,1 C 14,0 C 13,5 C 13,4 C 0,0 C 87 % 93 % 1007,7 hPa 0,0 l/m 0,0 km/h (0 Bft) O-NO 67 0 min 11,4 C 13,4 C 0,0 km/h (0 Bft)
13.07.2021 05:25 13,5 C 20,1 C 14,1 C 13,5 C 13,4 C 0,0 C 87 % 93 % 1007,7 hPa 0,0 l/m 0,0 km/h (0 Bft) O-NO 67 0 min 11,4 C 13,4 C 0,0 km/h (0 Bft)
13.07.2021 05:30 13,5 C 20,1 C 14,0 C 13,5 C 13,5 C 0,0 C 87 % 93 % 1007,7 hPa 0,0 l/m 0,0 km/h (0 Bft) O-NO 67 0 min 11,4 C 13,5 C 0,0 km/h (0 Bft)
13.07.2021 05:35 13,3 C 20,1 C 14,3 C 13,7 C 13,7 C 0,4 C 87 % 93 % 1007,4 hPa 0,0 l/m 0,0 km/h (0 Bft) O-NO 67 0 min 11,2 C 13,7 C 0,0 km/h (0 Bft)
13.07.2021 05:40 13,3 C 20,1 C 14,3 C 13,7 C 13,7 C 0,4 C 88 % 93 % 1007,4 hPa 0,0 l/m 0,0 km/h (0 Bft) O-NO 67 0 min 11,4 C 13,7 C 0,0 km/h (0 Bft)
13.07.2021 05:45 13,3 C 20,1 C 14,3 C 13,9 C 13,9 C 0,6 C 87 % 93 % 1007,4 hPa 0,0 l/m 0,0 km/h (0 Bft) O-NO 67 0 min 11,2 C 13,9 C 0,0 km/h (0 Bft)
13.07.2021 05:50 13,3 C 20,1 C 14,3 C 13,9 C 13,9 C 0,6 C 88 % 93 % 1007,4 hPa 0,0 l/m 0,0 km/h (0 Bft) O-NO 67 0 min 11,4 C 13,9 C 0,0 km/h (0 Bft)
13.07.2021 05:55 13,3 C 20,1 C 14,5 C 14,1 C 14,1 C 0,8 C 87 % 93 % 1007,6 hPa 0,0 l/m 0,0 km/h (0 Bft) O-NO 67 0 min 11,2 C 14,1 C 0,0 km/h (0 Bft)
13.07.2021 06:00 13,3 C 20,1 C 14,5 C 14,1 C 14,1 C 0,8 C 87 % 93 % 1007,6 hPa 0,0 l/m 0,0 km/h (0 Bft) O-NO 67 0 min 11,2 C 14,1 C 0,0 km/h (0 Bft)
13.07.2021 06:05 13,3 C 20,0 C 14,5 C 14,3 C 14,3 C 1,0 C 87 % 93 % 1007,6 hPa 0,0 l/m 0,0 km/h (0 Bft) O-NO 67 0 min 11,2 C 14,3 C 0,0 km/h (0 Bft)
13.07.2021 06:10 13,3 C 20,0 C 14,5 C 14,4 C 14,4 C 1,1 C 88 % 93 % 1007,6 hPa 0,0 l/m 0,0 km/h (0 Bft) O-NO 67 0 min 11,4 C 14,4 C 0,0 km/h (0 Bft)
13.07.2021 06:15 13,3 C 19,9 C 14,7 C 14,5 C 14,5 C 1,2 C 87 % 93 % 1007,8 hPa 0,0 l/m 0,0 km/h (0 Bft) O-NO 67 0 min 11,2 C 14,5 C 0,0 km/h (0 Bft)
13.07.2021 06:20 13,3 C 20,0 C 14,7 C 14,6 C 14,6 C 1,3 C 87 % 93 % 1007,8 hPa 0,0 l/m 0,0 km/h (0 Bft) O-NO 67 0 min 11,2 C 14,6 C 0,0 km/h (0 Bft)
13.07.2021 06:25 13,3 C 20,0 C 14,7 C 14,6 C 14,6 C 1,3 C 87 % 93 % 1007,8 hPa 0,0 l/m 0,0 km/h (0 Bft) O-NO 67 0 min 11,2 C 14,6 C 0,0 km/h (0 Bft)
13.07.2021 06:30 13,3 C 20,0 C 14,7 C 14,5 C 14,5 C 1,2 C 87 % 93 % 1007,8 hPa 0,0 l/m 0,0 km/h (0 Bft) O-NO 67 0 min 11,2 C 14,5 C 0,0 km/h (0 Bft)
13.07.2021 06:35 13,3 C 20,0 C 14,7 C 14,5 C 14,5 C 1,2 C 87 % 93 % 1007,8 hPa 0,0 l/m 0,0 km/h (0 Bft) O-NO 67 0 min 11,2 C 14,5 C 0,0 km/h (0 Bft)
13.07.2021 06:40 13,3 C 19,9 C 14,7 C 14,6 C 14,6 C 1,3 C 87 % 92 % 1007,8 hPa 0,0 l/m 0,0 km/h (0 Bft) O-NO 67 0 min 11,2 C 14,6 C 0,0 km/h (0 Bft)
13.07.2021 06:45 13,4 C 19,9 C 14,9 C 14,9 C 14,9 C 1,5 C 87 % 92 % 1007,8 hPa 0,0 l/m 0,0 km/h (0 Bft) O-NO 67 0 min 11,3 C 14,9 C 0,0 km/h (0 Bft)
13.07.2021 06:50 13,5 C 19,9 C 15,0 C 15,2 C 15,2 C 1,7 C 87 % 93 % 1007,8 hPa 0,0 l/m 0,0 km/h (0 Bft) O-NO 67 0 min 11,4 C 15,2 C 0,0 km/h (0 Bft)
13.07.2021 06:55 13,5 C 19,9 C 15,4 C 15,7 C 15,7 C 2,2 C 87 % 93 % 1007,7 hPa 0,0 l/m 0,0 km/h (0 Bft) O-NO 67 0 min 11,4 C 15,7 C 0,0 km/h (0 Bft)
13.07.2021 07:00 13,6 C 19,9 C 15,6 C 16,1 C 16,1 C 2,5 C 87 % 93 % 1007,7 hPa 0,0 l/m 0,0 km/h (0 Bft) O-NO 67 5 min 11,5 C 16,1 C 0,0 km/h (0 Bft)
13.07.2021 07:05 13,9 C 19,9 C 15,9 C 16,6 C 16,6 C 2,7 C 88 % 93 % 1007,7 hPa 0,0 l/m 0,0 km/h (0 Bft) O-NO 67 5 min 11,9 C 16,6 C 0,0 km/h (0 Bft)
13.07.2021 07:10 14,0 C 19,9 C 15,9 C 16,9 C 16,9 C 2,9 C 88 % 93 % 1007,7 hPa 0,0 l/m 0,0 km/h (0 Bft) O-NO 67 5 min 12,0 C 16,9 C 0,0 km/h (0 Bft)
13.07.2021 07:15 14,3 C 19,9 C 16,1 C 17,6 C 17,6 C 3,3 C 88 % 93 % 1007,5 hPa 0,0 l/m 0,0 km/h (0 Bft) O-NO 67 5 min 12,3 C 17,6 C 0,0 km/h (0 Bft)
13.07.2021 07:20 14,4 C 19,9 C 16,3 C 19,4 C 19,4 C 5,0 C 88 % 92 % 1007,5 hPa 0,0 l/m 0,0 km/h (0 Bft) O-NO 67 5 min 12,4 C 19,4 C 0,0 km/h (0 Bft)
13.07.2021 07:25 14,8 C 19,8 C 16,7 C 20,6 C 20,6 C 5,8 C 88 % 92 % 1007,5 hPa 0,0 l/m 0,0 km/h (0 Bft) O-NO 67 5 min 12,8 C 20,6 C 0,0 km/h (0 Bft)
13.07.2021 07:30 15,1 C 19,9 C 17,1 C 22,2 C 22,2 C 7,1 C 88 % 92 % 1007,5 hPa 0,0 l/m 0,0 km/h (0 Bft) O-NO 67 5 min 13,1 C 22,2 C 0,0 km/h (0 Bft)
13.07.2021 07:35 15,5 C 19,8 C 17,1 C 24,4 C 24,4 C 8,9 C 88 % 92 % 1007,3 hPa 0,0 l/m 0,0 km/h (0 Bft) O-NO 67 5 min 13,5 C 24,4 C 0,0 km/h (0 Bft)
13.07.2021 07:40 15,6 C 19,8 C 17,1 C 24,0 C 24,0 C 8,4 C 88 % 92 % 1007,3 hPa 0,0 l/m 0,0 km/h (0 Bft) O-NO 67 5 min 13,6 C 24,0 C 0,0 km/h (0 Bft)
13.07.2021 07:45 15,7 C 19,9 C 17,1 C 21,9 C 21,9 C 6,2 C 88 % 92 % 1007,3 hPa 0,0 l/m 0,0 km/h (0 Bft) O-NO 67 5 min 13,7 C 21,9 C 0,0 km/h (0 Bft)
13.07.2021 07:50 15,7 C 19,7 C 17,1 C 21,0 C 21,0 C 5,3 C 88 % 92 % 1007,3 hPa 0,0 l/m 0,0 km/h (0 Bft) O-NO 67 5 min 13,7 C 21,0 C 0,0 km/h (0 Bft)
13.07.2021 07:55 15,7 C 19,8 C 17,1 C 20,2 C 20,2 C 4,5 C 88 % 92 % 1007,4 hPa 0,0 l/m 0,0 km/h (0 Bft) O-NO 67 5 min 13,7 C 20,2 C 0,0 km/h (0 Bft)
13.07.2021 08:00 15,9 C 19,8 C 17,1 C 19,9 C 19,9 C 4,0 C 88 % 92 % 1007,4 hPa 0,0 l/m 0,0 km/h (0 Bft) O-NO 67 5 min 13,9 C 19,9 C 0,0 km/h (0 Bft)
13.07.2021 08:05 15,9 C 19,8 C 17,2 C 19,6 C 19,6 C 3,7 C 88 % 92 % 1007,4 hPa 0,0 l/m 0,0 km/h (0 Bft) O-NO 67 5 min 13,9 C 19,6 C 0,0 km/h (0 Bft)
13.07.2021 08:10 16,1 C 19,7 C 17,4 C 19,6 C 19,6 C 3,5 C 88 % 92 % 1007,4 hPa 0,0 l/m 0,0 km/h (0 Bft) O-NO 67 5 min 14,1 C 19,6 C 0,0 km/h (0 Bft)
13.07.2021 08:15 16,1 C 19,8 C 17,5 C 19,8 C 19,8 C 3,7 C 88 % 91 % 1007,5 hPa 0,0 l/m 0,0 km/h (0 Bft) O-NO 67 5 min 14,1 C 19,8 C 0,0 km/h (0 Bft)
13.07.2021 08:20 16,3 C 19,8 C 17,7 C 20,1 C 20,1 C 3,8 C 87 % 91 % 1007,5 hPa 0,0 l/m 0,0 km/h (0 Bft) O-SO 112 5 min 14,1 C 20,1 C 0,0 km/h (0 Bft)
13.07.2021 08:25 16,7 C 19,6 C 18,1 C 22,9 C 22,9 C 6,2 C 87 % 91 % 1007,5 hPa 0,0 l/m 0,0 km/h (0 Bft) O-SO 112 5 min 14,5 C 22,9 C 0,0 km/h (0 Bft)
13.07.2021 08:30 17,0 C 19,6 C 18,3 C 24,8 C 24,8 C 7,8 C 88 % 91 % 1007,5 hPa 0,0 l/m 0,0 km/h (0 Bft) O-SO 112 5 min 15,0 C 24,8 C 0,0 km/h (0 Bft)
13.07.2021 08:35 17,4 C 19,6 C 18,4 C 26,2 C 26,2 C 8,8 C 87 % 91 % 1007,7 hPa 0,0 l/m 0,0 km/h (0 Bft) O-SO 112 5 min 15,2 C 26,2 C 0,0 km/h (0 Bft)
13.07.2021 08:40 17,6 C 19,6 C 18,5 C 25,3 C 25,3 C 7,7 C 87 % 90 % 1007,7 hPa 0,0 l/m 0,0 km/h (0 Bft) O-SO 112 5 min 15,4 C 25,3 C 0,0 km/h (0 Bft)
13.07.2021 08:45 17,9 C 19,6 C 18,6 C 24,3 C 24,3 C 6,4 C 87 % 91 % 1007,7 hPa 0,0 l/m 0,0 km/h (0 Bft) O-SO 112 5 min 15,7 C 24,3 C 0,0 km/h (0 Bft)
13.07.2021 08:50 18,1 C 19,6 C 18,7 C 23,8 C 23,8 C 5,7 C 87 % 91 % 1007,7 hPa 0,0 l/m 0,0 km/h (0 Bft) O-SO 112 5 min 15,9 C 23,8 C 0,0 km/h (0 Bft)
13.07.2021 08:55 18,4 C 19,6 C 18,7 C 23,5 C 23,5 C 5,1 C 87 % 91 % 1007,6 hPa 0,0 l/m 0,0 km/h (0 Bft) O-SO 112 5 min 16,2 C 23,5 C 0,0 km/h (0 Bft)
13.07.2021 09:00 18,8 C 19,7 C 18,9 C 24,5 C 24,5 C 5,7 C 87 % 91 % 1007,6 hPa 0,0 l/m 0,0 km/h (0 Bft) O-SO 112 5 min 16,6 C 24,5 C 0,0 km/h (0 Bft)
13.07.2021 09:05 19,5 C 19,6 C 19,1 C 25,6 C 25,6 C 6,1 C 87 % 90 % 1007,6 hPa 0,0 l/m 0,3 km/h (0 Bft) O-SO 112 5 min 17,3 C 25,6 C 0,0 km/h (0 Bft)
13.07.2021 09:10 19,9 C 19,6 C 19,3 C 25,5 C 25,5 C 5,6 C 87 % 90 % 1007,6 hPa 0,0 l/m 0,3 km/h (0 Bft) O-SO 112 5 min 17,7 C 25,5 C 0,0 km/h (0 Bft)
13.07.2021 09:15 20,4 C 19,6 C 19,6 C 26,7 C 26,7 C 6,3 C 86 % 90 % 1007,4 hPa 0,0 l/m 0,0 km/h (0 Bft) O-SO 112 5 min 18,0 C 26,7 C 0,0 km/h (0 Bft)
13.07.2021 09:20 20,9 C 19,6 C 19,8 C 28,7 C 28,7 C 7,8 C 86 % 90 % 1007,4 hPa 0,0 l/m 0,0 km/h (0 Bft) O-SO 112 5 min 18,5 C 28,7 C 0,0 km/h (0 Bft)
13.07.2021 09:25 21,7 C 19,5 C 20,1 C 29,8 C 29,8 C 8,1 C 86 % 89 % 1007,4 hPa 0,0 l/m 0,2 km/h (0 Bft) O-NO 67 5 min 19,3 C 29,8 C 5,5 km/h (1 Bft)
13.07.2021 09:30 22,3 C 19,5 C 20,4 C 30,0 C 30,0 C 7,7 C 85 % 89 % 1007,4 hPa 0,0 l/m 0,5 km/h (0 Bft) NO 45 5 min 19,7 C 30,0 C 1,8 km/h (1 Bft)
13.07.2021 09:35 22,7 C 19,5 C 21,0 C 29,7 C 29,7 C 7,0 C 83 % 87 % 1006,9 hPa 0,0 l/m 1,1 km/h (1 Bft) NO 45 5 min 19,7 C 29,7 C 0,0 km/h (0 Bft)
13.07.2021 09:40 22,8 C 19,5 C 21,1 C 28,7 C 28,7 C 5,9 C 82 % 87 % 1006,9 hPa 0,0 l/m 0,8 km/h (0 Bft) O-SO 112 5 min 19,6 C 28,7 C 0,0 km/h (0 Bft)
13.07.2021 09:45 22,9 C 19,5 C 21,3 C 27,4 C 27,4 C 4,5 C 80 % 85 % 1006,9 hPa 0,0 l/m 1,0 km/h (0 Bft) O 90 5 min 19,3 C 27,4 C 4,2 km/h (1 Bft)
13.07.2021 09:50 23,0 C 19,5 C 21,5 C 26,8 C 26,8 C 3,8 C 79 % 84 % 1006,9 hPa 0,0 l/m 1,8 km/h (1 Bft) NO 45 5 min 19,2 C 26,8 C 2,4 km/h (1 Bft)
13.07.2021 09:55 23,1 C 19,5 C 21,9 C 26,4 C 26,4 C 3,3 C 76 % 82 % 1006,6 hPa 0,0 l/m 4,2 km/h (1 Bft) NO 45 5 min 18,6 C 26,4 C 8,7 km/h (2 Bft)
13.07.2021 10:00 23,1 C 19,5 C 22,1 C 26,1 C 26,1 C 3,0 C 76 % 81 % 1006,6 hPa 0,0 l/m 5,0 km/h (1 Bft) O-NO 67 0 min 18,6 C 26,1 C 3,4 km/h (1 Bft)
13.07.2021 10:05 23,2 C 19,5 C 22,3 C 25,8 C 25,8 C 2,6 C 75 % 80 % 1006,6 hPa 0,0 l/m 4,2 km/h (1 Bft) O-NO 67 0 min 18,5 C 25,8 C 0,0 km/h (0 Bft)
13.07.2021 10:10 23,2 C 19,5 C 22,3 C 25,8 C 25,8 C 2,6 C 76 % 81 % 1006,6 hPa 0,0 l/m 3,2 km/h (1 Bft) O-NO 67 0 min 18,7 C 25,8 C 3,9 km/h (1 Bft)
13.07.2021 10:15 23,3 C 19,5 C 22,3 C 25,7 C 25,7 C 2,4 C 75 % 80 % 1006,9 hPa 0,0 l/m 3,2 km/h (1 Bft) O-NO 67 0 min 18,6 C 25,7 C 3,4 km/h (1 Bft)
13.07.2021 10:20 23,3 C 19,5 C 22,3 C 25,8 C 25,8 C 2,5 C 74 % 79 % 1006,9 hPa 0,0 l/m 3,9 km/h (1 Bft) O-NO 67 0 min 18,4 C 25,8 C 6,0 km/h (2 Bft)
13.07.2021 10:25 23,5 C 19,5 C 22,5 C 26,0 C 26,0 C 2,5 C 73 % 78 % 1006,9 hPa 0,0 l/m 4,2 km/h (1 Bft) O-NO 67 0 min 18,4 C 26,0 C 5,3 km/h (1 Bft)
13.07.2021 10:30 23,5 C 19,5 C 22,5 C 25,9 C 25,9 C 2,4 C 74 % 79 % 1006,9 hPa 0,0 l/m 2,9 km/h (1 Bft) NO 45 0 min 18,6 C 25,9 C 0,0 km/h (0 Bft)
13.07.2021 10:35 23,6 C 19,6 C 22,4 C 25,9 C 25,9 C 2,3 C 74 % 80 % 1007,2 hPa 0,0 l/m 1,4 km/h (1 Bft) O-NO 67 0 min 18,7 C 25,9 C 0,0 km/h (0 Bft)
13.07.2021 10:40 23,8 C 19,6 C 22,4 C 26,0 C 26,0 C 2,2 C 75 % 80 % 1007,2 hPa 0,0 l/m 0,5 km/h (0 Bft) O-NO 67 0 min 19,1 C 26,0 C 0,0 km/h (0 Bft)
13.07.2021 10:45 24,0 C 19,6 C 22,5 C 26,5 C 26,5 C 2,5 C 75 % 80 % 1007,2 hPa 0,0 l/m 0,2 km/h (0 Bft) O-NO 67 0 min 19,3 C 26,5 C 0,0 km/h (0 Bft)
13.07.2021 10:50 24,0 C 19,6 C 22,7 C 27,1 C 27,1 C 3,1 C 74 % 80 % 1007,2 hPa 0,0 l/m 1,0 km/h (0 Bft) NO 45 0 min 19,1 C 27,1 C 3,1 km/h (1 Bft)
13.07.2021 10:55 24,2 C 19,6 C 23,1 C 28,0 C 28,0 C 3,8 C 73 % 78 % 1006,6 hPa 0,0 l/m 1,6 km/h (1 Bft) NO 45 5 min 19,0 C 28,0 C 2,7 km/h (1 Bft)
13.07.2021 11:00 24,3 C 19,6 C 23,2 C 28,3 C 28,3 C 4,0 C 73 % 78 % 1006,6 hPa 0,0 l/m 1,8 km/h (1 Bft) O-NO 67 5 min 19,1 C 28,3 C 3,4 km/h (1 Bft)
13.07.2021 11:05 24,5 C 19,6 C 23,4 C 28,7 C 28,7 C 4,2 C 73 % 78 % 1006,6 hPa 0,0 l/m 2,1 km/h (1 Bft) O-NO 67 5 min 19,3 C 28,7 C 3,5 km/h (1 Bft)
13.07.2021 11:10 24,5 C 19,7 C 23,5 C 28,5 C 28,5 C 4,0 C 73 % 78 % 1006,6 hPa 0,0 l/m 1,8 km/h (1 Bft) O-NO 67 5 min 19,3 C 28,5 C 0,0 km/h (0 Bft)
13.07.2021 11:15 24,8 C 19,6 C 23,6 C 29,0 C 29,0 C 4,2 C 73 % 76 % 1006,0 hPa 0,0 l/m 1,9 km/h (1 Bft) O-NO 67 5 min 19,6 C 29,0 C 3,7 km/h (1 Bft)
13.07.2021 11:20 24,7 C 19,6 C 23,6 C 28,7 C 28,7 C 4,0 C 71 % 75 % 1006,0 hPa 0,0 l/m 2,9 km/h (1 Bft) O-NO 67 5 min 19,1 C 28,7 C 5,6 km/h (1 Bft)
13.07.2021 11:25 24,7 C 19,7 C 23,8 C 28,8 C 28,8 C 4,1 C 71 % 75 % 1006,0 hPa 0,0 l/m 3,9 km/h (1 Bft) O-NO 67 5 min 19,1 C 28,8 C 8,2 km/h (2 Bft)
13.07.2021 11:30 24,8 C 19,6 C 23,9 C 28,7 C 28,7 C 3,9 C 72 % 75 % 1006,0 hPa 0,0 l/m 3,5 km/h (1 Bft) O-NO 67 5 min 19,4 C 28,7 C 5,1 km/h (1 Bft)
13.07.2021 11:35 24,9 C 19,6 C 24,0 C 28,6 C 28,6 C 3,7 C 71 % 74 % 1006,2 hPa 0,0 l/m 3,5 km/h (1 Bft) O-NO 67 5 min 19,3 C 28,6 C 11,1 km/h (2 Bft)
13.07.2021 11:40 24,8 C 19,6 C 24,1 C 28,5 C 28,5 C 3,7 C 70 % 73 % 1006,2 hPa 0,0 l/m 4,2 km/h (1 Bft) SO 135 5 min 18,9 C 28,5 C 3,7 km/h (1 Bft)
13.07.2021 11:45 24,9 C 19,6 C 24,1 C 29,3 C 29,3 C 4,4 C 71 % 75 % 1006,2 hPa 0,0 l/m 3,9 km/h (1 Bft) O-SO 112 5 min 19,3 C 29,3 C 3,1 km/h (1 Bft)
13.07.2021 11:50 25,1 C 19,7 C 24,2 C 29,3 C 29,3 C 4,2 C 71 % 74 % 1006,2 hPa 0,0 l/m 2,7 km/h (1 Bft) NO 45 5 min 19,5 C 29,3 C 5,8 km/h (2 Bft)
13.07.2021 11:55 25,3 C 19,7 C 24,3 C 29,3 C 29,3 C 4,0 C 70 % 73 % 1006,1 hPa 0,0 l/m 3,2 km/h (1 Bft) O 90 5 min 19,4 C 29,3 C 5,5 km/h (1 Bft)
13.07.2021 12:00 25,2 C 19,7 C 24,3 C 28,8 C 28,8 C 3,6 C 71 % 74 % 1006,1 hPa 0,0 l/m 3,7 km/h (1 Bft) W-NW 292 5 min 19,6 C 28,8 C 2,6 km/h (1 Bft)
13.07.2021 12:05 25,3 C 19,7 C 24,4 C 28,8 C 28,8 C 3,5 C 70 % 73 % 1006,1 hPa 0,0 l/m 3,9 km/h (1 Bft) O-NO 67 5 min 19,4 C 28,8 C 3,7 km/h (1 Bft)
13.07.2021 12:10 25,4 C 19,7 C 24,5 C 28,8 C 28,8 C 3,4 C 71 % 74 % 1006,1 hPa 0,0 l/m 3,4 km/h (1 Bft) O 90 5 min 19,7 C 28,8 C 3,5 km/h (1 Bft)
13.07.2021 12:15 25,5 C 19,8 C 24,6 C 29,0 C 29,0 C 3,5 C 71 % 74 % 1005,6 hPa 0,0 l/m 3,1 km/h (1 Bft) O-NO 67 5 min 19,8 C 29,0 C 3,4 km/h (1 Bft)
13.07.2021 12:20 25,5 C 19,8 C 24,6 C 28,9 C 28,9 C 3,4 C 71 % 74 % 1005,6 hPa 0,0 l/m 3,1 km/h (1 Bft) O-NO 67 5 min 19,8 C 28,9 C 3,4 km/h (1 Bft)
13.07.2021 12:25 25,7 C 19,8 C 24,7 C 29,5 C 29,5 C 3,8 C 71 % 74 % 1005,6 hPa 0,0 l/m 2,7 km/h (1 Bft) O-NO 67 5 min 20,0 C 29,5 C 5,0 km/h (1 Bft)
13.07.2021 12:30 25,8 C 19,8 C 24,9 C 29,6 C 29,6 C 3,8 C 71 % 74 % 1005,6 hPa 0,0 l/m 2,6 km/h (1 Bft) O 90 5 min 20,1 C 29,6 C 3,5 km/h (1 Bft)
13.07.2021 12:35 26,1 C 19,9 C 25,1 C 30,3 C 30,3 C 4,2 C 72 % 75 % 1005,5 hPa 0,0 l/m 2,4 km/h (1 Bft) O 90 5 min 20,6 C 30,3 C 8,0 km/h (2 Bft)
13.07.2021 12:40 26,1 C 19,8 C 25,1 C 30,1 C 30,1 C 4,0 C 70 % 72 % 1005,5 hPa 0,0 l/m 3,4 km/h (1 Bft) O 90 5 min 20,2 C 30,1 C 7,2 km/h (2 Bft)
13.07.2021 12:45 26,0 C 19,8 C 25,0 C 29,5 C 29,5 C 3,5 C 71 % 73 % 1005,5 hPa 0,0 l/m 4,0 km/h (1 Bft) W 270 5 min 20,3 C 29,5 C 2,3 km/h (1 Bft)
13.07.2021 12:50 26,2 C 19,9 C 25,2 C 30,2 C 30,2 C 4,0 C 71 % 74 % 1005,5 hPa 0,0 l/m 2,7 km/h (1 Bft) NO 45 5 min 20,5 C 30,2 C 3,5 km/h (1 Bft)
13.07.2021 12:55 26,4 C 19,9 C 25,3 C 30,4 C 30,4 C 4,0 C 71 % 73 % 1005,5 hPa 0,0 l/m 1,9 km/h (1 Bft) O-NO 67 5 min 20,7 C 30,4 C 5,0 km/h (1 Bft)
13.07.2021 13:00 26,5 C 19,9 C 25,3 C 30,3 C 30,3 C 3,8 C 70 % 73 % 1005,5 hPa 0,0 l/m 1,9 km/h (1 Bft) O-NO 67 5 min 20,6 C 30,3 C 2,7 km/h (1 Bft)
13.07.2021 13:05 26,5 C 19,9 C 25,5 C 30,5 C 30,5 C 4,0 C 71 % 73 % 1005,5 hPa 0,0 l/m 1,9 km/h (1 Bft) W-SW 247 5 min 20,8 C 30,5 C 7,1 km/h (2 Bft)
13.07.2021 13:10 26,5 C 19,9 C 25,5 C 30,5 C 30,5 C 4,0 C 71 % 73 % 1005,5 hPa 0,0 l/m 1,9 km/h (1 Bft) W-SW 247 5 min 20,8 C 30,5 C 7,1 km/h (2 Bft)
13.07.2021 13:15 27,0 C 20,0 C 25,9 C 31,9 C 31,9 C 4,9 C 69 % 72 % 1005,4 hPa 0,0 l/m 3,5 km/h (1 Bft) O-NO 67 5 min 20,8 C 31,9 C 8,4 km/h (2 Bft)
13.07.2021 13:20 27,1 C 20,0 C 26,2 C 31,6 C 31,6 C 4,5 C 69 % 73 % 1005,4 hPa 0,0 l/m 4,5 km/h (1 Bft) O 90 5 min 20,9 C 31,6 C 4,5 km/h (1 Bft)
13.07.2021 13:25 27,2 C 19,9 C 26,4 C 31,6 C 31,6 C 4,4 C 68 % 72 % 1005,4 hPa 0,0 l/m 5,3 km/h (1 Bft) O-NO 67 5 min 20,8 C 31,6 C 8,4 km/h (2 Bft)
13.07.2021 13:30 27,3 C 19,9 C 26,5 C 31,8 C 31,8 C 4,5 C 68 % 70 % 1005,4 hPa 0,0 l/m 5,0 km/h (1 Bft) NO 45 5 min 20,9 C 31,8 C 3,7 km/h (1 Bft)
13.07.2021 13:35 27,4 C 20,0 C 26,6 C 32,0 C 32,0 C 4,6 C 68 % 69 % 1005,1 hPa 0,0 l/m 5,5 km/h (1 Bft) NO 45 5 min 21,0 C 32,0 C 3,5 km/h (1 Bft)
13.07.2021 13:40 27,6 C 20,0 C 26,7 C 32,5 C 32,5 C 4,9 C 67 % 68 % 1005,1 hPa 0,0 l/m 4,3 km/h (1 Bft) O-NO 67 5 min 20,9 C 32,5 C 4,8 km/h (1 Bft)
13.07.2021 13:45 27,7 C 20,0 C 26,8 C 32,3 C 32,3 C 4,6 C 64 % 68 % 1005,1 hPa 0,0 l/m 4,7 km/h (1 Bft) O-NO 67 5 min 20,3 C 32,3 C 11,3 km/h (2 Bft)
13.07.2021 13:50 27,7 C 20,0 C 26,9 C 32,1 C 32,1 C 4,4 C 63 % 65 % 1005,1 hPa 0,0 l/m 6,6 km/h (2 Bft) O-NO 67 5 min 20,0 C 32,1 C 12,7 km/h (3 Bft)
13.07.2021 13:55 27,9 C 20,1 C 27,0 C 32,1 C 32,1 C 4,2 C 64 % 68 % 1004,8 hPa 0,0 l/m 6,8 km/h (2 Bft) O-NO 67 5 min 20,4 C 32,1 C 7,2 km/h (2 Bft)
13.07.2021 14:00 27,9 C 20,1 C 26,9 C 32,0 C 32,0 C 4,1 C 62 % 65 % 1004,8 hPa 0,0 l/m 7,2 km/h (2 Bft) O 90 5 min 19,9 C 32,0 C 5,6 km/h (1 Bft)
13.07.2021 14:05 28,1 C 20,1 C 27,0 C 32,1 C 32,1 C 4,0 C 62 % 66 % 1004,8 hPa 0,0 l/m 6,1 km/h (2 Bft) NO 45 5 min 20,1 C 32,1 C 14,0 km/h (3 Bft)
13.07.2021 14:10 28,1 C 20,1 C 27,0 C 32,3 C 32,3 C 4,2 C 62 % 65 % 1004,8 hPa 0,0 l/m 5,3 km/h (1 Bft) O-NO 67 5 min 20,1 C 32,3 C 4,7 km/h (1 Bft)
13.07.2021 14:15 28,2 C 20,2 C 27,3 C 32,9 C 32,9 C 4,7 C 62 % 64 % 1004,5 hPa 0,0 l/m 5,0 km/h (1 Bft) SO 135 5 min 20,2 C 32,9 C 3,7 km/h (1 Bft)
13.07.2021 14:20 28,3 C 20,2 C 27,5 C 33,1 C 33,1 C 4,8 C 63 % 65 % 1004,5 hPa 0,0 l/m 3,9 km/h (1 Bft) O-NO 67 5 min 20,6 C 33,1 C 2,7 km/h (1 Bft)
13.07.2021 14:25 28,2 C 20,2 C 27,2 C 32,8 C 32,8 C 4,6 C 61 % 63 % 1004,5 hPa 0,0 l/m 4,3 km/h (1 Bft) O 90 5 min 19,9 C 32,8 C 7,6 km/h (2 Bft)
13.07.2021 14:30 28,0 C 20,2 C 26,9 C 31,8 C 31,8 C 3,8 C 60 % 64 % 1004,5 hPa 0,0 l/m 4,5 km/h (1 Bft) O 90 5 min 19,5 C 31,8 C 2,1 km/h (1 Bft)
13.07.2021 14:35 28,0 C 20,2 C 26,7 C 31,3 C 31,3 C 3,3 C 61 % 64 % 1004,3 hPa 0,0 l/m 4,0 km/h (1 Bft) O 90 5 min 19,8 C 31,3 C 6,3 km/h (2 Bft)
13.07.2021 14:40 27,9 C 20,2 C 26,8 C 31,0 C 31,0 C 3,1 C 61 % 64 % 1004,3 hPa 0,0 l/m 5,8 km/h (2 Bft) O-NO 67 0 min 19,7 C 31,0 C 10,9 km/h (2 Bft)
13.07.2021 14:45 27,7 C 20,3 C 26,7 C 30,4 C 30,4 C 2,7 C 60 % 63 % 1004,3 hPa 0,0 l/m 7,4 km/h (2 Bft) O-SO 112 0 min 19,2 C 30,4 C 5,3 km/h (1 Bft)
13.07.2021 14:50 27,7 C 20,3 C 26,7 C 30,3 C 30,3 C 2,6 C 60 % 63 % 1004,3 hPa 0,0 l/m 6,9 km/h (2 Bft) O-NO 67 0 min 19,2 C 30,3 C 8,7 km/h (2 Bft)
13.07.2021 14:55 27,7 C 20,3 C 26,8 C 30,5 C 30,5 C 2,8 C 60 % 62 % 1004,2 hPa 0,0 l/m 6,8 km/h (2 Bft) O-NO 67 0 min 19,2 C 30,5 C 8,7 km/h (2 Bft)
13.07.2021 15:00 27,7 C 20,3 C 26,8 C 30,3 C 30,3 C 2,6 C 60 % 61 % 1004,2 hPa 0,0 l/m 7,2 km/h (2 Bft) O-NO 67 0 min 19,2 C 30,3 C 7,1 km/h (2 Bft)
13.07.2021 15:05 27,9 C 20,3 C 27,0 C 30,6 C 30,6 C 2,7 C 60 % 62 % 1004,2 hPa 0,0 l/m 7,2 km/h (2 Bft) O-NO 67 0 min 19,4 C 30,6 C 7,7 km/h (2 Bft)
13.07.2021 15:10 27,8 C 20,4 C 27,1 C 30,9 C 30,9 C 3,1 C 60 % 63 % 1004,2 hPa 0,0 l/m 6,8 km/h (2 Bft) O-NO 67 0 min 19,3 C 30,9 C 7,2 km/h (2 Bft)
13.07.2021 15:15 27,9 C 20,4 C 27,1 C 31,0 C 31,0 C 3,1 C 61 % 62 % 1004,1 hPa 0,0 l/m 7,1 km/h (2 Bft) O-NO 67 0 min 19,7 C 31,0 C 6,0 km/h (2 Bft)
13.07.2021 15:20 27,8 C 20,4 C 27,0 C 30,8 C 30,8 C 3,0 C 60 % 62 % 1004,1 hPa 0,0 l/m 6,9 km/h (2 Bft) O-NO 67 0 min 19,3 C 30,8 C 7,1 km/h (2 Bft)
13.07.2021 15:25 27,9 C 20,4 C 26,9 C 30,6 C 30,6 C 2,7 C 60 % 61 % 1004,1 hPa 0,0 l/m 6,1 km/h (2 Bft) O-NO 67 0 min 19,4 C 30,6 C 4,5 km/h (1 Bft)
13.07.2021 15:30 27,8 C 20,4 C 27,0 C 30,6 C 30,6 C 2,8 C 61 % 62 % 1004,1 hPa 0,0 l/m 5,3 km/h (1 Bft) NO 45 0 min 19,6 C 30,6 C 4,5 km/h (1 Bft)
13.07.2021 15:35 27,9 C 20,5 C 27,0 C 31,3 C 31,3 C 3,4 C 62 % 63 % 1004,4 hPa 0,0 l/m 3,4 km/h (1 Bft) O-SO 112 5 min 19,9 C 31,3 C 7,2 km/h (2 Bft)
13.07.2021 15:40 27,9 C 20,5 C 27,0 C 31,5 C 31,5 C 3,6 C 62 % 64 % 1004,4 hPa 0,0 l/m 3,4 km/h (1 Bft) NO 45 5 min 19,9 C 31,5 C 4,8 km/h (1 Bft)
13.07.2021 15:45 28,0 C 20,5 C 27,1 C 32,0 C 32,0 C 4,0 C 62 % 63 % 1004,4 hPa 0,0 l/m 4,2 km/h (1 Bft) O-NO 67 5 min 20,0 C 32,0 C 5,5 km/h (1 Bft)
13.07.2021 15:50 28,1 C 20,5 C 27,2 C 32,4 C 32,4 C 4,3 C 62 % 62 % 1004,4 hPa 0,0 l/m 4,0 km/h (1 Bft) O 90 5 min 20,1 C 32,4 C 3,9 km/h (1 Bft)
13.07.2021 15:55 28,1 C 20,5 C 27,3 C 32,5 C 32,5 C 4,4 C 61 % 62 % 1004,2 hPa 0,0 l/m 4,2 km/h (1 Bft) NO 45 5 min 19,9 C 32,5 C 3,7 km/h (1 Bft)
13.07.2021 16:00 28,2 C 20,5 C 27,3 C 32,7 C 32,7 C 4,5 C 62 % 63 % 1004,2 hPa 0,0 l/m 3,5 km/h (1 Bft) NO 45 5 min 20,2 C 32,7 C 2,3 km/h (1 Bft)
13.07.2021 16:05 28,3 C 20,6 C 27,2 C 32,8 C 32,8 C 4,5 C 62 % 63 % 1004,2 hPa 0,0 l/m 2,9 km/h (1 Bft) N-NW 337 5 min 20,3 C 32,8 C 4,3 km/h (1 Bft)
13.07.2021 16:10 28,3 C 20,6 C 27,2 C 32,8 C 32,8 C 4,5 C 61 % 62 % 1004,2 hPa 0,0 l/m 3,1 km/h (1 Bft) O-NO 67 5 min 20,0 C 32,8 C 4,5 km/h (1 Bft)
13.07.2021 16:15 28,3 C 20,6 C 27,2 C 32,9 C 32,9 C 4,6 C 61 % 62 % 1004,1 hPa 0,0 l/m 3,4 km/h (1 Bft) O 90 5 min 20,0 C 32,9 C 6,6 km/h (2 Bft)
13.07.2021 16:20 28,2 C 20,6 C 27,4 C 33,0 C 33,0 C 4,8 C 60 % 61 % 1004,1 hPa 0,0 l/m 3,9 km/h (1 Bft) O-NO 67 5 min 19,7 C 33,0 C 6,0 km/h (2 Bft)
13.07.2021 16:25 28,3 C 20,6 C 27,4 C 32,9 C 32,9 C 4,6 C 61 % 63 % 1004,1 hPa 0,0 l/m 4,8 km/h (1 Bft) S 180 5 min 20,0 C 32,9 C 7,4 km/h (2 Bft)
13.07.2021 16:30 28,3 C 20,7 C 27,5 C 32,8 C 32,8 C 4,5 C 61 % 63 % 1004,1 hPa 0,0 l/m 4,3 km/h (1 Bft) O-NO 67 5 min 20,0 C 32,8 C 3,4 km/h (1 Bft)
13.07.2021 16:35 28,3 C 20,7 C 27,5 C 33,2 C 33,2 C 4,9 C 60 % 61 % 1003,8 hPa 0,0 l/m 4,3 km/h (1 Bft) O 90 5 min 19,8 C 33,2 C 6,1 km/h (2 Bft)
13.07.2021 16:40 28,3 C 20,7 C 27,5 C 33,0 C 33,0 C 4,7 C 59 % 60 % 1003,8 hPa 0,0 l/m 5,1 km/h (1 Bft) O-SO 112 5 min 19,5 C 33,0 C 7,4 km/h (2 Bft)
13.07.2021 16:45 28,2 C 20,7 C 27,4 C 32,7 C 32,7 C 4,5 C 61 % 62 % 1003,8 hPa 0,0 l/m 5,0 km/h (1 Bft) NO 45 5 min 19,9 C 32,7 C 3,4 km/h (1 Bft)
13.07.2021 16:50 28,3 C 20,7 C 27,5 C 33,0 C 33,0 C 4,7 C 61 % 62 % 1003,8 hPa 0,0 l/m 4,2 km/h (1 Bft) O-NO 67 5 min 20,0 C 33,0 C 5,1 km/h (1 Bft)
13.07.2021 16:55 28,3 C 20,7 C 27,3 C 33,2 C 33,2 C 4,9 C 60 % 60 % 1004,2 hPa 0,0 l/m 3,4 km/h (1 Bft) O-NO 67 5 min 19,8 C 33,2 C 2,7 km/h (1 Bft)
13.07.2021 17:00 28,3 C 20,7 C 27,3 C 33,2 C 33,2 C 4,9 C 59 % 60 % 1004,2 hPa 0,0 l/m 3,7 km/h (1 Bft) O-SO 112 5 min 19,5 C 33,2 C 4,8 km/h (1 Bft)
13.07.2021 17:05 28,3 C 20,8 C 27,3 C 32,5 C 32,5 C 4,2 C 60 % 60 % 1004,2 hPa 0,0 l/m 3,5 km/h (1 Bft) NO 45 5 min 19,8 C 32,5 C 3,7 km/h (1 Bft)
13.07.2021 17:10 28,2 C 20,8 C 27,2 C 32,1 C 32,1 C 3,9 C 60 % 61 % 1004,2 hPa 0,0 l/m 3,5 km/h (1 Bft) O 90 5 min 19,7 C 32,1 C 4,2 km/h (1 Bft)
13.07.2021 17:15 28,1 C 20,8 C 27,1 C 31,9 C 31,9 C 3,8 C 61 % 62 % 1004,1 hPa 0,0 l/m 2,3 km/h (1 Bft) NO 45 5 min 19,9 C 31,9 C 0,0 km/h (0 Bft)
13.07.2021 17:20 28,1 C 20,8 C 27,1 C 32,2 C 32,2 C 4,1 C 60 % 61 % 1004,1 hPa 0,0 l/m 2,3 km/h (1 Bft) O-NO 67 5 min 19,6 C 32,2 C 9,2 km/h (2 Bft)
13.07.2021 17:25 28,1 C 20,8 C 26,9 C 31,7 C 31,7 C 3,6 C 61 % 63 % 1004,1 hPa 0,0 l/m 2,6 km/h (1 Bft) O-NO 67 5 min 19,9 C 31,7 C 0,0 km/h (0 Bft)
13.07.2021 17:30 28,0 C 20,8 C 26,6 C 30,9 C 30,9 C 2,9 C 61 % 64 % 1004,1 hPa 0,0 l/m 2,9 km/h (1 Bft) O-SO 112 0 min 19,8 C 30,9 C 4,7 km/h (1 Bft)
13.07.2021 17:35 27,7 C 20,9 C 26,3 C 29,5 C 29,5 C 1,8 C 61 % 64 % 1003,6 hPa 0,0 l/m 2,3 km/h (1 Bft) O-SO 112 0 min 19,5 C 29,5 C 3,5 km/h (1 Bft)
13.07.2021 17:40 27,6 C 20,9 C 26,3 C 28,8 C 28,8 C 1,2 C 61 % 64 % 1003,6 hPa 0,0 l/m 3,2 km/h (1 Bft) SO 135 0 min 19,4 C 28,8 C 7,2 km/h (2 Bft)
13.07.2021 17:45 27,5 C 20,9 C 26,0 C 28,2 C 28,2 C 0,7 C 62 % 65 % 1003,6 hPa 0,0 l/m 3,2 km/h (1 Bft) O-NO 67 0 min 19,6 C 28,2 C 2,6 km/h (1 Bft)
13.07.2021 17:50 27,3 C 20,9 C 26,0 C 28,1 C 28,1 C 0,8 C 63 % 66 % 1003,6 hPa 0,0 l/m 1,9 km/h (1 Bft) O-NO 67 0 min 19,6 C 28,1 C 0,0 km/h (0 Bft)
13.07.2021 17:55 27,2 C 20,9 C 25,8 C 27,9 C 27,9 C 0,7 C 64 % 67 % 1003,8 hPa 0,0 l/m 1,0 km/h (0 Bft) O-NO 67 0 min 19,8 C 27,9 C 3,2 km/h (1 Bft)
13.07.2021 18:00 27,2 C 20,9 C 25,8 C 27,8 C 27,8 C 0,6 C 64 % 67 % 1003,8 hPa 0,0 l/m 1,3 km/h (1 Bft) O-SO 112 0 min 19,8 C 27,8 C 1,9 km/h (1 Bft)
13.07.2021 18:05 27,1 C 20,9 C 25,6 C 27,7 C 27,7 C 0,6 C 65 % 69 % 1003,8 hPa 0,0 l/m 1,3 km/h (1 Bft) O-NO 67 0 min 19,9 C 27,7 C 2,1 km/h (1 Bft)
13.07.2021 18:10 27,1 C 20,9 C 25,5 C 27,5 C 27,5 C 0,4 C 65 % 69 % 1003,8 hPa 0,0 l/m 1,1 km/h (1 Bft) O-NO 67 0 min 19,9 C 27,5 C 3,2 km/h (1 Bft)
13.07.2021 18:15 26,9 C 21,0 C 25,4 C 27,2 C 27,2 C 0,3 C 65 % 69 % 1003,8 hPa 0,0 l/m 2,1 km/h (1 Bft) O-NO 67 0 min 19,7 C 27,2 C 0,0 km/h (0 Bft)
13.07.2021 18:20 26,8 C 21,0 C 25,3 C 27,1 C 27,1 C 0,3 C 66 % 70 % 1003,8 hPa 0,0 l/m 1,6 km/h (1 Bft) O-NO 67 0 min 19,9 C 27,1 C 0,0 km/h (0 Bft)
13.07.2021 18:25 26,7 C 21,0 C 25,1 C 26,9 C 26,9 C 0,2 C 67 % 72 % 1003,8 hPa 0,0 l/m 0,3 km/h (0 Bft) O-NO 67 0 min 20,0 C 26,9 C 0,0 km/h (0 Bft)
13.07.2021 18:30 26,6 C 21,0 C 25,0 C 26,8 C 26,8 C 0,2 C 67 % 74 % 1003,8 hPa 0,0 l/m 0,3 km/h (0 Bft) O-NO 67 0 min 20,0 C 26,8 C 0,0 km/h (0 Bft)
13.07.2021 18:35 26,5 C 21,0 C 24,8 C 26,6 C 26,6 C 0,1 C 67 % 75 % 1003,9 hPa 0,0 l/m 0,0 km/h (0 Bft) O-SO 112 0 min 19,9 C 26,6 C 0,0 km/h (0 Bft)
13.07.2021 18:40 26,5 C 21,0 C 24,6 C 26,5 C 26,5 C 0,0 C 68 % 75 % 1003,9 hPa 0,0 l/m 0,0 km/h (0 Bft) O-SO 112 0 min 20,1 C 26,5 C 0,0 km/h (0 Bft)
13.07.2021 18:45 26,3 C 21,0 C 24,4 C 26,3 C 26,2 C 0,0 C 68 % 76 % 1003,9 hPa 0,0 l/m 0,0 km/h (0 Bft) O-NO 67 0 min 19,9 C 26,2 C 0,0 km/h (0 Bft)
13.07.2021 18:50 26,2 C 21,1 C 24,3 C 26,2 C 26,1 C 0,0 C 69 % 77 % 1003,9 hPa 0,0 l/m 0,0 km/h (0 Bft) O-NO 67 0 min 20,0 C 26,1 C 0,0 km/h (0 Bft)
13.07.2021 18:55 26,1 C 21,1 C 24,2 C 26,0 C 25,8 C 0,0 C 69 % 76 % 1003,8 hPa 0,0 l/m 0,0 km/h (0 Bft) O-NO 67 0 min 20,0 C 25,8 C 0,0 km/h (0 Bft)
13.07.2021 19:00 25,8 C 21,1 C 24,0 C 25,8 C 25,7 C 0,0 C 69 % 76 % 1003,8 hPa 0,0 l/m 0,0 km/h (0 Bft) O-NO 67 0 min 19,7 C 25,7 C 0,0 km/h (0 Bft)
13.07.2021 19:05 25,7 C 21,2 C 23,9 C 25,7 C 25,6 C 0,0 C 69 % 77 % 1003,8 hPa 0,0 l/m 0,0 km/h (0 Bft) O-NO 67 0 min 19,6 C 25,6 C 0,0 km/h (0 Bft)
13.07.2021 19:10 25,6 C 21,2 C 23,8 C 25,6 C 25,5 C 0,0 C 70 % 78 % 1003,8 hPa 0,0 l/m 0,0 km/h (0 Bft) O-NO 67 0 min 19,7 C 25,5 C 0,0 km/h (0 Bft)
13.07.2021 19:15 25,5 C 21,2 C 23,6 C 25,4 C 25,3 C 0,0 C 71 % 79 % 1003,6 hPa 0,0 l/m 0,0 km/h (0 Bft) O-NO 67 0 min 19,8 C 25,3 C 0,0 km/h (0 Bft)
13.07.2021 19:20 25,5 C 21,2 C 23,6 C 25,4 C 25,2 C 0,0 C 71 % 78 % 1003,6 hPa 0,0 l/m 0,0 km/h (0 Bft) O-NO 67 0 min 19,8 C 25,2 C 0,0 km/h (0 Bft)
13.07.2021 19:25 25,4 C 21,2 C 23,5 C 25,3 C 25,1 C 0,0 C 71 % 79 % 1003,6 hPa 0,0 l/m 0,0 km/h (0 Bft) O-NO 67 0 min 19,7 C 25,1 C 0,0 km/h (0 Bft)
13.07.2021 19:30 25,2 C 21,2 C 23,5 C 25,2 C 25,1 C 0,0 C 71 % 80 % 1003,6 hPa 0,0 l/m 0,0 km/h (0 Bft) O-NO 67 0 min 19,6 C 25,1 C 0,0 km/h (0 Bft)
13.07.2021 19:35 25,1 C 21,3 C 23,4 C 25,1 C 25,0 C 0,0 C 71 % 80 % 1003,5 hPa 0,0 l/m 0,0 km/h (0 Bft) O-NO 67 0 min 19,5 C 25,0 C 0,0 km/h (0 Bft)
13.07.2021 19:40 25,0 C 21,3 C 23,3 C 25,0 C 25,0 C 0,0 C 72 % 81 % 1003,5 hPa 0,0 l/m 0,0 km/h (0 Bft) O-NO 67 0 min 19,6 C 25,0 C 0,0 km/h (0 Bft)
13.07.2021 19:45 25,0 C 21,3 C 23,3 C 25,0 C 24,9 C 0,0 C 72 % 80 % 1003,5 hPa 0,0 l/m 0,8 km/h (0 Bft) O-NO 67 0 min 19,6 C 24,9 C 2,4 km/h (1 Bft)
13.07.2021 19:50 24,9 C 21,3 C 23,3 C 24,9 C 24,9 C 0,0 C 72 % 79 % 1003,5 hPa 0,0 l/m 1,1 km/h (1 Bft) O-NO 67 0 min 19,5 C 24,9 C 0,0 km/h (0 Bft)
13.07.2021 19:55 24,9 C 21,3 C 23,4 C 24,9 C 24,9 C 0,0 C 73 % 79 % 1003,7 hPa 0,0 l/m 0,8 km/h (0 Bft) O-NO 67 0 min 19,7 C 24,9 C 0,0 km/h (0 Bft)
13.07.2021 20:00 24,9 C 21,3 C 23,3 C 24,9 C 24,8 C 0,0 C 73 % 79 % 1003,7 hPa 0,0 l/m 0,2 km/h (0 Bft) O-NO 67 0 min 19,7 C 24,8 C 0,0 km/h (0 Bft)
13.07.2021 20:05 24,8 C 21,3 C 23,2 C 24,8 C 24,7 C 0,0 C 73 % 80 % 1003,7 hPa 0,0 l/m 0,0 km/h (0 Bft) O-NO 67 0 min 19,6 C 24,7 C 0,0 km/h (0 Bft)
13.07.2021 20:10 24,7 C 21,3 C 23,0 C 24,7 C 24,6 C 0,0 C 74 % 81 % 1003,7 hPa 0,0 l/m 0,0 km/h (0 Bft) O-NO 67 0 min 19,7 C 24,6 C 0,0 km/h (0 Bft)
13.07.2021 20:15 24,7 C 21,4 C 22,9 C 24,6 C 24,3 C 0,0 C 74 % 82 % 1003,4 hPa 0,0 l/m 0,0 km/h (0 Bft) O-NO 67 0 min 19,7 C 24,3 C 0,0 km/h (0 Bft)
13.07.2021 20:20 24,5 C 21,4 C 22,9 C 24,4 C 24,3 C 0,0 C 75 % 82 % 1003,4 hPa 0,0 l/m 0,0 km/h (0 Bft) O-NO 67 0 min 19,8 C 24,3 C 0,0 km/h (0 Bft)
13.07.2021 20:25 24,4 C 21,4 C 22,8 C 24,2 C 23,9 C 0,0 C 75 % 82 % 1003,4 hPa 0,0 l/m 0,0 km/h (0 Bft) O-NO 67 0 min 19,7 C 23,9 C 0,0 km/h (0 Bft)
13.07.2021 20:30 24,3 C 21,4 C 22,7 C 24,1 C 23,6 C 0,0 C 76 % 82 % 1003,4 hPa 0,0 l/m 0,0 km/h (0 Bft) O-NO 67 0 min 19,8 C 23,6 C 0,0 km/h (0 Bft)
13.07.2021 20:35 24,3 C 21,4 C 22,5 C 23,9 C 23,1 C 0,0 C 76 % 83 % 1003,3 hPa 0,0 l/m 0,0 km/h (0 Bft) O-NO 67 0 min 19,8 C 23,1 C 0,0 km/h (0 Bft)
13.07.2021 20:40 24,2 C 21,6 C 22,4 C 23,6 C 22,5 C 0,0 C 76 % 84 % 1003,3 hPa 0,0 l/m 0,0 km/h (0 Bft) O-NO 67 0 min 19,7 C 22,5 C 0,0 km/h (0 Bft)
13.07.2021 20:45 24,0 C 21,8 C 22,0 C 23,3 C 21,8 C 0,0 C 77 % 85 % 1003,3 hPa 0,0 l/m 0,0 km/h (0 Bft) O-NO 67 0 min 19,7 C 21,8 C 0,0 km/h (0 Bft)
13.07.2021 20:50 23,8 C 21,8 C 21,9 C 23,1 C 21,6 C 0,0 C 78 % 87 % 1003,3 hPa 0,0 l/m 0,0 km/h (0 Bft) O-NO 67 0 min 19,7 C 21,6 C 0,0 km/h (0 Bft)
13.07.2021 20:55 23,7 C 21,8 C 21,7 C 23,0 C 21,6 C 0,0 C 80 % 87 % 1003,9 hPa 0,0 l/m 0,0 km/h (0 Bft) O-NO 67 0 min 20,0 C 21,6 C 0,0 km/h (0 Bft)
13.07.2021 21:00 23,5 C 21,8 C 21,5 C 22,8 C 21,4 C 0,0 C 80 % 88 % 1003,9 hPa 0,0 l/m 0,0 km/h (0 Bft) O-NO 67 0 min 19,8 C 21,4 C 0,0 km/h (0 Bft)
13.07.2021 21:05 23,0 C 21,8 C 21,3 C 22,4 C 21,2 C 0,0 C 81 % 89 % 1003,9 hPa 0,7 l/m 0,5 km/h (0 Bft) O-SO 112 0 min 19,6 C 21,2 C 0,0 km/h (0 Bft)
13.07.2021 21:10 22,8 C 21,8 C 21,1 C 22,2 C 21,0 C 0,0 C 81 % 89 % 1003,9 hPa 0,7 l/m 0,6 km/h (0 Bft) SO 135 0 min 19,4 C 21,0 C 0,0 km/h (0 Bft)
13.07.2021 21:15 22,5 C 21,8 C 20,7 C 21,9 C 20,8 C 0,0 C 82 % 90 % 1004,2 hPa 0,0 l/m 0,2 km/h (0 Bft) SO 135 0 min 19,3 C 20,8 C 0,0 km/h (0 Bft)
13.07.2021 21:20 22,5 C 21,8 C 20,7 C 21,9 C 20,7 C 0,0 C 82 % 90 % 1004,2 hPa 0,0 l/m 0,0 km/h (0 Bft) SO 135 0 min 19,3 C 20,7 C 1,8 km/h (1 Bft)
13.07.2021 21:25 22,3 C 21,8 C 20,5 C 21,7 C 20,5 C 0,0 C 82 % 91 % 1004,2 hPa 0,0 l/m 0,6 km/h (0 Bft) SO 135 0 min 19,1 C 20,5 C 0,0 km/h (0 Bft)
13.07.2021 21:30 22,3 C 21,8 C 20,3 C 21,6 C 20,3 C 0,0 C 82 % 91 % 1004,2 hPa 0,0 l/m 1,0 km/h (0 Bft) S 180 0 min 19,1 C 20,3 C 2,1 km/h (1 Bft)
13.07.2021 21:35 22,3 C 21,8 C 20,0 C 21,5 C 20,0 C 0,0 C 82 % 91 % 1005,0 hPa 0,0 l/m 1,6 km/h (1 Bft) S 180 0 min 19,1 C 20,0 C 2,3 km/h (1 Bft)
13.07.2021 21:40 22,3 C 21,7 C 19,9 C 21,5 C 19,8 C 0,0 C 82 % 91 % 1005,0 hPa 0,0 l/m 1,3 km/h (1 Bft) W 270 0 min 19,1 C 19,8 C 0,0 km/h (0 Bft)
13.07.2021 21:45 22,3 C 21,7 C 19,7 C 21,4 C 19,6 C 0,0 C 82 % 92 % 1005,0 hPa 0,0 l/m 0,5 km/h (0 Bft) W-SW 247 0 min 19,1 C 19,6 C 0,0 km/h (0 Bft)
13.07.2021 21:50 22,3 C 21,7 C 19,6 C 21,4 C 19,6 C 0,0 C 82 % 92 % 1005,0 hPa 0,0 l/m 0,3 km/h (0 Bft) N-NO 22 0 min 19,1 C 19,6 C 0,0 km/h (0 Bft)
13.07.2021 21:55 22,3 C 21,7 C 19,5 C 21,3 C 19,4 C 0,0 C 82 % 92 % 1005,2 hPa 0,0 l/m 0,2 km/h (0 Bft) S-SO 157 0 min 19,1 C 19,4 C 0,0 km/h (0 Bft)
13.07.2021 22:00 22,3 C 21,7 C 19,3 C 21,3 C 19,3 C 0,0 C 82 % 92 % 1005,2 hPa 0,0 l/m 0,0 km/h (0 Bft) O-SO 112 0 min 19,1 C 19,3 C 0,0 km/h (0 Bft)
13.07.2021 22:05 22,3 C 21,7 C 19,3 C 21,3 C 19,2 C 0,0 C 82 % 92 % 1005,2 hPa 0,0 l/m 0,2 km/h (0 Bft) S-SO 157 0 min 19,1 C 19,2 C 4,7 km/h (1 Bft)
13.07.2021 22:10 22,3 C 21,7 C 19,2 C 21,2 C 19,1 C 0,0 C 82 % 92 % 1005,2 hPa 0,0 l/m 0,5 km/h (0 Bft) S 180 0 min 19,1 C 19,1 C 1,8 km/h (1 Bft)
13.07.2021 22:15 22,3 C 21,7 C 19,2 C 21,2 C 19,0 C 0,0 C 82 % 92 % 1005,1 hPa 0,0 l/m 0,8 km/h (0 Bft) SW 225 0 min 19,1 C 19,0 C 0,0 km/h (0 Bft)
13.07.2021 22:20 22,3 C 21,8 C 19,1 C 21,2 C 19,0 C 0,0 C 82 % 92 % 1005,1 hPa 0,0 l/m 0,8 km/h (0 Bft) SW 225 0 min 19,1 C 19,0 C 0,0 km/h (0 Bft)
13.07.2021 22:25 22,3 C 21,8 C 19,1 C 21,2 C 18,9 C 0,0 C 82 % 92 % 1005,1 hPa 0,0 l/m 0,6 km/h (0 Bft) S-SO 157 0 min 19,1 C 18,9 C 0,0 km/h (0 Bft)
13.07.2021 22:30 22,3 C 21,8 C 19,0 C 21,2 C 18,9 C 0,0 C 82 % 92 % 1005,1 hPa 0,0 l/m 0,5 km/h (0 Bft) SW 225 0 min 19,1 C 18,9 C 2,4 km/h (1 Bft)
13.07.2021 22:35 22,3 C 21,8 C 19,0 C 21,2 C 18,9 C 0,0 C 82 % 92 % 1004,5 hPa 0,7 l/m 1,1 km/h (1 Bft) SW 225 0 min 19,1 C 18,9 C 5,3 km/h (1 Bft)
13.07.2021 22:40 19,8 C 21,7 C 19,0 C 19,5 C 18,9 C 0,0 C 86 % 92 % 1004,5 hPa 0,0 l/m 1,8 km/h (1 Bft) W-SW 247 0 min 17,4 C 18,9 C 1,9 km/h (1 Bft)
13.07.2021 22:45 19,8 C 21,7 C 18,9 C 19,5 C 18,9 C 0,0 C 86 % 92 % 1004,5 hPa 0,0 l/m 1,4 km/h (1 Bft) W-SW 247 0 min 17,4 C 18,9 C 2,7 km/h (1 Bft)
13.07.2021 22:50 19,8 C 21,7 C 18,9 C 19,5 C 18,9 C 0,0 C 86 % 92 % 1004,5 hPa 0,0 l/m 1,0 km/h (0 Bft) S-SW 202 0 min 17,4 C 18,9 C 4,3 km/h (1 Bft)
13.07.2021 22:55 19,4 C 21,7 C 18,9 C 19,2 C 18,9 C 0,0 C 87 % 92 % 1004,5 hPa 0,0 l/m 0,5 km/h (0 Bft) N-NW 337 0 min 17,2 C 18,9 C 0,0 km/h (0 Bft)
13.07.2021 23:00 19,4 C 21,7 C 18,8 C 19,2 C 18,9 C 0,0 C 87 % 92 % 1004,5 hPa 0,7 l/m 0,5 km/h (0 Bft) W-NW 292 0 min 17,2 C 18,9 C 0,0 km/h (0 Bft)
13.07.2021 23:05 19,5 C 21,7 C 18,8 C 19,3 C 18,9 C 0,0 C 87 % 92 % 1004,5 hPa 0,0 l/m 0,3 km/h (0 Bft) W-SW 247 0 min 17,3 C 18,9 C 0,0 km/h (0 Bft)
13.07.2021 23:10 19,5 C 21,7 C 18,8 C 19,3 C 18,9 C 0,0 C 87 % 92 % 1004,5 hPa 0,0 l/m 0,5 km/h (0 Bft) S 180 0 min 17,3 C 18,9 C 0,0 km/h (0 Bft)
13.07.2021 23:15 19,2 C 21,7 C 18,8 C 19,1 C 18,9 C 0,0 C 87 % 92 % 1004,4 hPa 0,0 l/m 0,0 km/h (0 Bft) N-NO 22 0 min 17,0 C 18,9 C 0,0 km/h (0 Bft)
13.07.2021 23:20 19,2 C 21,7 C 18,8 C 19,1 C 18,9 C 0,0 C 87 % 92 % 1004,4 hPa 0,0 l/m 0,0 km/h (0 Bft) N-NO 22 0 min 17,0 C 18,9 C 0,0 km/h (0 Bft)
13.07.2021 23:25 19,2 C 21,7 C 18,8 C 19,1 C 18,8 C 0,0 C 87 % 92 % 1004,4 hPa 0,0 l/m 0,0 km/h (0 Bft) SO 135 0 min 17,0 C 18,8 C 0,0 km/h (0 Bft)
13.07.2021 23:30 19,2 C 21,7 C 18,8 C 19,1 C 18,8 C 0,0 C 87 % 92 % 1004,4 hPa 0,0 l/m 0,0 km/h (0 Bft) S-SW 202 0 min 17,0 C 18,8 C 0,0 km/h (0 Bft)
13.07.2021 23:35 19,2 C 21,7 C 18,7 C 19,0 C 18,7 C 0,0 C 87 % 92 % 1004,1 hPa 0,0 l/m 0,2 km/h (0 Bft) S-SO 157 0 min 17,0 C 18,7 C 0,0 km/h (0 Bft)
13.07.2021 23:40 19,2 C 21,7 C 18,7 C 19,0 C 18,7 C 0,0 C 87 % 92 % 1004,1 hPa 0,0 l/m 0,2 km/h (0 Bft) SW 225 0 min 17,0 C 18,7 C 0,0 km/h (0 Bft)
13.07.2021 23:45 19,2 C 21,7 C 18,7 C 19,0 C 18,7 C 0,0 C 87 % 92 % 1004,1 hPa 0,0 l/m 0,0 km/h (0 Bft) SW 225 0 min 17,0 C 18,7 C 0,0 km/h (0 Bft)
13.07.2021 23:50 19,2 C 21,7 C 18,7 C 19,0 C 18,7 C 0,0 C 87 % 92 % 1004,1 hPa 0,0 l/m 0,0 km/h (0 Bft) SW 225 0 min 17,0 C 18,7 C 0,0 km/h (0 Bft)
13.07.2021 23:55 19,2 C 21,7 C 18,7 C 19,0 C 18,7 C 0,0 C 87 % 92 % 1004,1 hPa 0,0 l/m 0,0 km/h (0 Bft) S-SO 157 0 min 17,0 C 18,7 C 0,0 km/h (0 Bft)
_ Min-Zeit 05:35 09:25 05:20 05:15 05:15 00:00 16:40 16:40 20:35 - 00:00 - - - 05:35 05:15 00:00
Minimum _ 13,3 C 19,5 C 14,0 C 13,5 C 13,4 C 0,0 C 59 % 60 % 1003,3 hPa - 0,0 km/h (0 Bft) - - - 11,2 C 13,4 C 0,0 km/h (0 Bft)
_ Max-Zeit 14:20 20:45 14:20 16:35 16:35 07:35 05:40 03:05 00:15 21:05 14:45 - - 07:00 13:35 16:35 14:05
Maximum _ 28,3 C 21,8 C 27,5 C 33,2 C 33,2 C 8,9 C 88 % 93 % 1008,8 hPa 0,7 l/m 7,4 km/h
O-SO (2 Bft)
- - 5 min 21,0 C 33,2 C 14,0 km/h
NO (3 Bft)
Durchschnitt _ 21,3 C 20,5 C 20,7 C 23,1 C 22,9 C 2,0 C 78 % 82 % 1006,0 hPa #2,7 l/m 1,4 km/h (1 Bft) O-NO - #8:40 h 17,0 C 22,9 C 1,8 km/h (1 Bft)
2021 www.wetterstation-wechselburg.de